Vertical_Velocity
-1 0 -2 -1 -2 -4 -3 -2 2 -2 -3 1 -2 -3 -0 0 3 2 5 0 -0 -1 -2 -4 -1 -0 -2 -2 -1 -4 -4 -1 0 -3 -3 -1 1 0 1 -1 0 3 -0 1 0 -1 2 2 2
1 1 -0 -2 -3 -4 -2 -2 -2 1 -1 2 0 -4 0 0 2 1 -2 3 -0 -2 -2 -2 -2 -0 -1 -4 -1 -1 -2 -2 -2 -1 -1 0 2 1 4 3 4 1 1 -0 1 0 2 1 2
-1 -0 -1 -2 -4 -5 -3 1 -2 -1 2 -2 1 -2 -2 -2 -1 3 1 3 3 0 -0 -1 -1 -2 -2 -3 -2 1 -1 -4 -2 -2 -1 1 -1 -1 -1 4 2 4 4 0 0 1 1 3 1
-1 0 -0 -1 -2 -0 -3 -4 -2 2 -1 -1 -2 -1 1 1 -3 1 1 -0 -2 -3 -2 -1 -0 0 -1 -1 -2 -0 1 -5 -4 5 -10 -1 -4 -1 -2 -1 -2 -0 1 2 5 4 3 2 -1
-1 1 1 1 -4 -1 -4 -5 -4 -2 -4 -2 0 -3 -1 1 -6 -0 0 -2 -5 -2 -1 0 -2 -2 -0 -3 -2 -0 -1 -2 -2 14 2 -5 -1 -13 0 1 -7 -3 0 2 3 3 4 1 0
-1 -1 4 4 -1 1 -4 -5 -3 -2 -0 -2 -0 -5 1 -2 -2 -1 2 -1 -5 -2 -1 -3 -2 -2 -0 -3 -2 -0 -3 -2 1 31 35 -2 -1 1 11 -1 -10 -1 2 -2 -0 1 2 2 -0
-3 -1 5 7 2 -1 -3 -2 -2 -1 -4 -2 -2 -7 -1 -1 -3 2 2 1 -2 -5 -2 -2 -1 -2 -2 -1 -2 -0 -3 -3 -0 1 7 -9 25 20 2 1 5 0 -1 -1 -2 4 2 2 0
-3 -5 6 12 5 -2 -3 -6 -2 -1 2 -3 -4 -0 -2 -3 -1 1 3 5 2 0 -3 -1 -1 -1 -1 -1 1 -0 -2 -5 -1 2 2 -8 -0 5 23 27 10 1 -1 -1 1 5 6 -2 -0
-2 -8 10 10 3 1 -4 -3 -3 -3 3 -1 -1 -2 -1 -1 1 1 0 0 3 1 -3 -3 -0 0 -2 -0 0 4 -4 -2 1 6 -1 -2 -4 -0 21 1 -2 3 -4 -1 1 3 4 0 0
-5 -1 11 3 -7 9 -10 -5 -5 -6 -6 -2 -5 -0 -1 -3 -1 3 4 1 2 0 -2 -3 -3 -2 -2 -1 -1 3 2 -10 -3 -0 8 1 -3 0 0 4 -0 2 -3 -4 2 9 4 -1 2
1 6 -3 10 -2 -3 4 -8 -5 -9 2 4 0 2 1 0 -3 0 -1 -0 2 0 1 -2 -4 0 -3 -2 -3 2 -0 -3 -1 1 3 5 3 1 2 1 -3 0 0 -3 2 8 1 1 -3
-15 3 3 7 0 -2 2 1 -4 -4 6 2 -2 -5 -4 -0 -1 -2 -2 0 2 -2 1 1 -3 1 -1 -1 0 1 1 -1 -3 4 4 -2 -2 -1 6 3 3 0 0 -2 4 0 2 2 -1
-9 17 -6 -0 2 2 0 6 3 -2 -2 -3 -2 -3 -2 -4 4 -3 -1 -2 5 -2 -2 2 -1 1 -0 1 -0 1 3 1 2 -3 1 -0 -1 -2 3 -2 -0 -0 1 -1 -0 1 3 2 1
9 -2 7 -3 1 1 -8 2 -10 17 -3 -1 -3 1 -7 -2 -0 -3 -9 1 -2 -5 -1 2 -0 0 -0 3 1 4 -1 3 -0 1 1 -1 0 4 11 -2 0 -1 2 1 -1 -3 2 3 -2
4 -7 -4 6 6 -0 -10 -4 6 0 1 0 2 4 1 -2 -1 -1 -2 4 -1 -1 -4 1 -1 -1 1 5 -3 -0 -2 -1 -2 4 5 -0 4 1 -0 5 4 1 2 -2 -3 -3 -1 2 0
-0 -6 9 12 1 7 -7 -3 -1 -1 -7 -1 -1 2 0 7 -0 -1 -3 3 1 4 -5 2 -1 -1 2 -0 1 1 2 2 1 3 -1 4 -6 3 -0 2 -1 2 2 -2 -4 -1 2 2 -1
5 9 -2 1 3 -5 -8 -2 8 0 -3 2 1 2 -1 1 6 1 -1 -1 4 -0 -3 1 -1 -2 2 -1 -1 -2 -1 -1 -3 -2 3 0 22 0 -3 6 1 -2 -2 1 -0 -1 2 -0 -0
7 -19 -0 -3 15 -8 4 -10 3 1 -3 -1 2 4 -1 -2 6 -2 -6 -2 -3 2 -3 -0 -1 -1 2 2 0 -1 -2 -1 2 6 -1 7 10 2 -3 -1 -3 -3 3 2 -1 0 -3 3 -3
-6 -4 -3 16 4 -16 3 -14 13 -4 -4 -7 -0 -0 -2 -1 8 1 2 -1 7 -1 -3 1 1 -2 1 1 -1 -1 -3 -2 1 2 13 6 7 4 3 1 -1 1 1 2 3 -1 -3 -2 3
-2 -1 10 9 15 -27 -3 -11 5 6 9 -4 -10 -2 -5 -7 2 1 -1 1 9 -2 -1 0 0 -0 1 1 2 -2 -0 -1 -2 1 -7 -0 5 8 11 5 1 -0 -2 -0 -0 -0 4 0 6
3 -7 12 -12 1 -2 -7 -30 -6 3 9 -10 2 -6 -2 -4 0 1 -1 1 3 -5 -1 -1 0 -1 1 -1 3 -2 -0 2 -1 -3 1 -1 11 4 5 4 -1 2 2 -1 3 2 -1 1 -2
-6 12 -1 -7 -4 -8 3 -67 40 12 -1 4 -3 -5 -1 -2 -5 -10 -5 -2 10 -5 -2 -1 -1 0 2 -2 1 -1 -1 1 2 1 -1 -1 1 10 10 5 -1 1 2 -2 3 -2 3 -2 0
6 -3 -3 0 -2 -9 16 -10 11 -0 5 4 -1 -4 2 -3 -5 -7 1 -2 2 -8 1 1 -1 -0 2 -0 -2 -2 -1 1 -0 0 1 2 -4 -2 3 -0 -2 1 -2 -2 3 -2 4 1 0
4 1 -4 -0 -2 -32 41 27 -32 -5 -3 -1 5 -2 -6 -5 -7 -3 1 9 1 -2 -4 2 -0 -1 1 -1 -2 -2 1 1 2 -3 -1 2 -1 3 3 4 1 1 -1 -0 2 0 2 0 -1
-3 9 -2 -17 -4 -28 2 -12 -12 -1 2 -1 -6 -9 -7 -2 9 3 -1 7 7 5 -0 1 1 -2 2 -2 -3 -2 1 2 3 1 -2 -2 0 3 -1 1 0 -1 3 3 4 3 3 2 5
3 7 1 -8 -5 1 3 -29 -3 -2 -5 7 -8 0 3 -7 -2 -2 -1 7 2 -0 -3 1 2 1 1 -0 -0 -2 -6 1 4 4 2 -6 -1 -3 20 -0 2 7 -3 2 0 5 10 12 5
12 1 6 -3 -8 -10 5 -2 -1 -4 1 1 -5 -0 2 1 -4 -14 -4 8 6 4 -1 -2 2 2 1 1 -0 -2 -6 1 3 1 4 -5 5 4 0 6 14 -12 13 9 2 13 12 13 1
8 -4 5 1 -12 -1 -20 -4 -11 0 -3 -5 2 4 -2 -1 10 8 -10 -5 -1 -7 -1 -4 3 3 2 1 -1 -1 -3 -4 3 3 3 0 0 -0 3 0 7 0 5 15 16 13 15 10 11
-0 -3 -0 8 1 -10 -14 -2 6 -5 -4 -5 0 -4 -13 6 3 -0 -3 -0 3 2 3 1 2 4 3 2 1 -1 -4 -3 -6 1 -1 2 -4 1 -2 2 12 5 6 5 15 10 11 10 5
6 -5 3 -1 12 -11 -6 -10 1 2 -10 -5 2 1 -4 -12 6 5 -5 -3 -1 5 3 -4 1 2 2 1 3 1 -3 -1 -6 -4 1 0 -0 -3 7 8 10 10 9 19 5 4 5 2 4
Height
5824 5824 5824 5823 5825 5821 5819 5819 5817 5817 5817 5816 5814 5812 5811 5811 5811 5811 5805 5804 5801 5798 5796 5792 5790 5788 5786 5786 5785 5784 5785 5786 5785 5785 5785 5785 5785 5785 5786 5789 5792 5795 5798 5802 5804 5807 5810 5814 5817
5820 5819 5820 5820 5820 5817 5817 5815 5814 5814 5814 5813 5811 5810 5809 5808 5806 5805 5804 5802 5798 5794 5791 5789 5786 5784 5783 5782 5781 5780 5780 5780 5781 5781 5780 5780 5780 5781 5781 5783 5785 5789 5793 5797 5800 5803 5806 5810 5814
5817 5817 5816 5816 5815 5814 5814 5813 5811 5810 5808 5807 5807 5806 5804 5804 5802 5801 5800 5800 5796 5792 5787 5784 5782 5780 5778 5778 5777 5777 5776 5775 5774 5774 5773 5772 5773 5774 5776 5777 5779 5782 5787 5791 5795 5799 5803 5808 5811
5814 5813 5813 5813 5811 5811 5810 5809 5808 5806 5805 5803 5801 5800 5800 5800 5799 5798 5796 5794 5790 5787 5783 5781 5778 5777 5776 5774 5773 5773 5771 5770 5769 5769 5767 5767 5768 5771 5770 5772 5773 5777 5781 5785 5790 5795 5800 5805 5808
5810 5809 5808 5808 5807 5807 5805 5805 5805 5803 5802 5801 5799 5794 5795 5794 5794 5794 5793 5790 5786 5784 5781 5777 5775 5773 5771 5771 5770 5768 5766 5765 5764 5767 5764 5763 5762 5761 5764 5767 5771 5775 5777 5781 5787 5793 5798 5802 5805
5806 5804 5804 5804 5804 5802 5801 5800 5801 5800 5798 5798 5797 5794 5791 5789 5787 5787 5787 5785 5782 5780 5778 5773 5771 5770 5768 5766 5765 5764 5762 5761 5760 5762 5746 5760 5760 5761 5763 5766 5769 5772 5775 5779 5786 5792 5795 5799 5801
5801 5800 5800 5799 5800 5799 5797 5795 5795 5795 5793 5791 5789 5789 5789 5787 5783 5783 5782 5782 5777 5778 5774 5769 5767 5767 5766 5763 5761 5759 5757 5756 5753 5754 5755 5754 5755 5758 5760 5764 5763 5767 5770 5776 5782 5788 5793 5796 5797
5795 5794 5795 5796 5795 5795 5791 5789 5790 5789 5787 5785 5784 5783 5782 5782 5779 5779 5778 5778 5776 5773 5769 5766 5764 5764 5762 5760 5757 5754 5752 5750 5749 5748 5750 5748 5748 5753 5756 5758 5761 5765 5764 5771 5778 5784 5790 5790 5793
5788 5788 5789 5790 5787 5787 5785 5784 5785 5783 5781 5780 5779 5777 5778 5775 5775 5775 5773 5773 5770 5767 5766 5763 5760 5759 5757 5755 5752 5749 5747 5744 5741 5743 5744 5743 5745 5747 5751 5757 5759 5761 5760 5767 5774 5781 5785 5786 5788
5780 5781 5782 5781 5779 5780 5778 5777 5777 5775 5776 5776 5774 5773 5769 5766 5766 5767 5768 5768 5764 5762 5761 5759 5755 5752 5750 5748 5747 5744 5742 5740 5734 5736 5735 5738 5740 5742 5745 5752 5756 5759 5760 5764 5771 5777 5781 5782 5783
5773 5773 5773 5773 5772 5772 5772 5771 5768 5768 5771 5769 5768 5768 5762 5759 5758 5757 5759 5762 5759 5756 5755 5754 5749 5746 5744 5741 5741 5738 5736 5734 5730 5729 5728 5728 5731 5735 5741 5746 5752 5755 5759 5763 5769 5774 5778 5779 5781
5763 5765 5766 5766 5765 5765 5767 5764 5763 5762 5765 5763 5761 5760 5757 5755 5754 5753 5752 5756 5754 5750 5748 5748 5745 5743 5741 5737 5735 5731 5728 5726 5724 5722 5720 5722 5725 5730 5736 5741 5748 5751 5757 5762 5766 5770 5773 5776 5780
5754 5757 5757 5757 5758 5758 5758 5758 5757 5756 5755 5755 5754 5751 5750 5748 5745 5744 5746 5750 5749 5745 5742 5741 5741 5739 5736 5731 5728 5725 5720 5718 5716 5715 5714 5716 5719 5724 5732 5738 5744 5749 5755 5760 5762 5769 5772 5775 5780
5745 5746 5749 5749 5750 5750 5748 5750 5748 5752 5749 5747 5746 5743 5742 5740 5740 5738 5740 5746 5744 5739 5736 5736 5736 5733 5729 5725 5722 5716 5712 5708 5709 5705 5705 5707 5711 5718 5725 5732 5739 5744 5751 5755 5759 5767 5771 5773 5778
5736 5737 5738 5741 5743 5741 5736 5746 5743 5742 5742 5742 5740 5736 5735 5732 5731 5730 5734 5737 5737 5736 5730 5729 5730 5728 5724 5720 5716 5710 5708 5706 5703 5698 5698 5700 5704 5710 5721 5727 5734 5739 5746 5751 5755 5762 5767 5770 5774
5727 5728 5731 5733 5731 5731 5727 5740 5735 5733 5733 5733 5731 5728 5725 5725 5723 5723 5725 5730 5730 5729 5725 5723 5724 5722 5719 5714 5712 5706 5702 5699 5695 5689 5688 5689 5693 5705 5715 5722 5729 5737 5742 5747 5753 5758 5766 5768 5771
5715 5720 5722 5720 5720 5719 5716 5727 5725 5723 5723 5722 5720 5718 5715 5715 5716 5716 5718 5722 5723 5722 5720 5717 5718 5716 5715 5711 5709 5702 5698 5695 5689 5680 5676 5679 5686 5701 5710 5717 5725 5732 5739 5744 5749 5755 5763 5767 5769
5708 5707 5709 5712 5710 5708 5708 5715 5714 5713 5712 5712 5710 5708 5705 5705 5708 5707 5711 5715 5715 5715 5714 5711 5713 5712 5711 5708 5705 5699 5695 5693 5688 5680 5676 5681 5689 5697 5708 5715 5721 5730 5736 5740 5745 5750 5756 5763 5764
5695 5697 5701 5702 5699 5694 5702 5703 5704 5701 5701 5702 5700 5699 5696 5697 5699 5699 5703 5709 5709 5708 5707 5707 5708 5708 5707 5705 5702 5696 5692 5690 5689 5683 5680 5686 5691 5699 5707 5713 5718 5727 5733 5737 5741 5745 5751 5757 5761
5683 5685 5691 5693 5691 5683 5690 5693 5695 5692 5692 5689 5689 5688 5686 5687 5689 5690 5694 5699 5701 5701 5701 5702 5703 5703 5703 5702 5699 5695 5691 5689 5688 5687 5685 5689 5694 5699 5706 5711 5718 5725 5729 5733 5737 5742 5746 5750 5757
5674 5676 5677 5679 5677 5675 5677 5682 5686 5685 5685 5681 5680 5675 5676 5677 5678 5681 5685 5691 5692 5694 5696 5697 5699 5699 5698 5698 5696 5694 5690 5689 5688 5688 5688 5690 5694 5699 5704 5708 5715 5721 5725 5730 5734 5738 5744 5747 5752
5664 5665 5665 5665 5664 5666 5667 5666 5680 5676 5677 5672 5669 5664 5666 5666 5666 5671 5677 5683 5687 5688 5690 5692 5694 5694 5694 5694 5693 5691 5689 5688 5687 5687 5688 5690 5692 5696 5701 5704 5710 5716 5721 5725 5731 5733 5739 5742 5745
5655 5652 5653 5653 5654 5653 5661 5648 5670 5667 5666 5664 5657 5654 5655 5655 5655 5663 5671 5676 5679 5680 5684 5686 5688 5689 5689 5690 5689 5686 5685 5686 5685 5685 5686 5687 5690 5691 5696 5699 5705 5712 5716 5720 5724 5728 5733 5737 5739
5643 5640 5641 5641 5643 5641 5654 5642 5657 5654 5654 5651 5648 5646 5646 5647 5649 5657 5665 5669 5672 5674 5675 5680 5683 5685 5685 5685 5685 5683 5682 5682 5681 5680 5682 5683 5686 5688 5689 5695 5699 5705 5711 5715 5719 5724 5727 5731 5734
5629 5630 5628 5629 5631 5632 5640 5632 5640 5642 5641 5639 5638 5637 5638 5639 5644 5652 5658 5662 5667 5669 5668 5673 5677 5680 5681 5681 5681 5680 5678 5678 5677 5676 5676 5677 5677 5680 5684 5689 5694 5699 5705 5710 5714 5718 5721 5725 5726
5617 5618 5617 5616 5620 5624 5627 5621 5629 5630 5628 5629 5627 5627 5629 5629 5632 5640 5650 5656 5661 5662 5663 5667 5672 5675 5677 5677 5678 5676 5675 5674 5672 5670 5670 5671 5668 5669 5673 5683 5687 5693 5697 5704 5708 5712 5715 5718 5720
5606 5607 5610 5607 5609 5608 5614 5615 5620 5619 5618 5618 5618 5617 5619 5621 5626 5634 5640 5648 5654 5656 5658 5661 5667 5671 5672 5673 5673 5673 5673 5672 5670 5667 5666 5665 5661 5663 5668 5674 5682 5686 5692 5698 5702 5705 5710 5713 5713
5593 5595 5598 5599 5598 5598 5603 5605 5606 5610 5607 5604 5606 5606 5608 5613 5622 5630 5633 5639 5645 5648 5651 5656 5662 5666 5668 5669 5669 5670 5669 5669 5667 5664 5663 5661 5657 5657 5662 5668 5674 5681 5687 5692 5696 5700 5703 5705 5708
5585 5586 5587 5590 5592 5591 5593 5596 5598 5596 5596 5596 5597 5597 5600 5605 5613 5620 5627 5631 5638 5639 5643 5651 5656 5660 5663 5665 5666 5666 5666 5666 5665 5662 5659 5658 5657 5656 5660 5663 5668 5674 5682 5688 5691 5696 5698 5699 5701
5576 5576 5578 5580 5582 5582 5581 5586 5588 5588 5589 5589 5589 5592 5596 5600 5605 5612 5616 5622 5628 5634 5637 5642 5649 5654 5658 5660 5662 5663 5664 5663 5663 5662 5660 5658 5658 5656 5658 5660 5664 5671 5676 5681 5686 5689 5691 5691 5693